RH
98 92 95 97 96 96 94 93 68 67 71 76 62 59 48 46 49 40 40 44 41 36 30 24 22 21 29 19 17 28 63 71 55 42 54 57 81 75 38 39 47 62 50
98 97 97 96 95 95 95 85 77 60 61 60 64 63 56 53 54 55 43 41 39 35 32 31 30 27 26 28 16 21 38 52 58 30 27 26 39 83 78 42 56 78 91
91 93 95 97 94 93 94 83 74 65 61 59 66 69 55 48 42 38 31 35 38 37 39 31 27 28 28 27 29 15 28 40 36 25 23 18 18 16 48 52 47 60 86
94 91 91 85 80 84 91 90 92 70 85 81 82 77 70 67 66 64 64 63 56 54 57 46 28 27 26 26 28 32 15 31 35 47 28 22 14 12 19 63 50 73 96
90 92 88 83 84 88 95 85 63 62 59 53 43 42 46 47 48 49 46 47 48 54 59 60 58 55 43 24 23 29 34 17 29 25 18 14 14 14 23 18 67 68 91
91 89 87 79 51 37 32 22 20 23 24 19 12 11 12 13 13 14 15 17 21 27 32 34 39 38 47 50 49 24 26 33 29 18 28 22 15 15 14 15 17 50 87
35 47 47 40 33 22 15 14 12 12 12 12 12 11 11 11 10 9 9 9 8 8 8 8 7 8 10 13 21 40 47 27 33 34 22 13 22 17 14 14 15 12 12
29 30 29 26 24 22 20 20 17 13 8 5 4 3 3 3 3 3 3 2 2 2 2 2 3 4 7 8 7 8 11 30 42 31 34 33 18 11 18 18 15 19 14
16 10 9 8 7 5 5 4 3 2 2 2 2 2 2 2 2 2 2 2 2 2 2 2 2 2 2 2 4 7 8 7 8 22 39 35 37 31 13 10 16 16 29
5 5 5 4 4 2 2 2 2 2 2 2 3 3 4 4 4 5 5 5 4 4 4 3 3 2 3 3 3 2 2 4 8 8 7 15 33 37 38 28 10 7 20
3 3 2 2 2 2 2 3 4 5 7 8 9 11 13 13 14 14 13 13 12 12 11 11 10 10 9 6 4 3 3 3 2 2 4 9 7 10 30 39 39 26 9
3 3 3 4 4 5 6 8 9 11 13 15 15 15 14 12 11 11 10 9 9 8 9 8 8 7 8 8 9 11 11 7 4 3 3 2 3 9 7 9 33 42 41
5 5 6 6 7 7 8 9 11 14 15 14 13 11 8 7 7 7 6 5 5 6 6 5 5 5 5 5 5 5 6 7 10 11 6 4 3 2 5 10 7 13 42
4 5 6 7 9 11 14 15 16 16 15 14 10 7 8 9 9 10 9 8 8 8 9 9 9 9 8 7 7 7 7 6 6 6 11 13 7 4 4 3 8 10 8
6 7 10 13 17 21 22 21 20 17 13 9 8 9 10 10 10 11 12 12 13 12 13 13 12 11 10 10 9 8 8 8 8 7 6 8 14 15 6 4 3 4 10
10 14 18 21 22 23 20 17 14 11 9 8 10 10 9 10 13 14 14 14 14 14 13 11 9 9 8 8 8 8 7 6 6 7 7 7 7 9 18 15 5 4 3
19 21 22 22 22 18 15 13 10 9 9 9 9 9 10 10 12 14 15 15 11 8 8 7 6 7 7 7 7 7 7 6 7 6 6 6 7 7 8 17 22 10 4
22 23 23 23 19 18 17 14 12 11 10 9 9 10 13 15 16 16 15 14 12 10 8 6 6 6 6 6 8 9 10 11 11 10 9 8 8 7 7 7 15 28 17
24 25 26 24 19 20 19 16 13 11 11 12 13 16 18 17 16 15 15 14 12 10 9 8 9 9 10 11 12 15 16 16 15 15 15 13 12 10 9 8 7 14 33
22 27 27 23 20 20 19 15 12 13 15 16 17 18 18 16 13 12 10 9 9 9 9 10 6 6 6 7 13 14 20 22 21 19 17 16 15 14 13 10 9 8 13
27 29 26 23 23 22 18 15 16 17 17 18 19 20 17 14 10 9 8 8 8 9 10 9 10 12 14 13 11 13 18 20 23 20 22 20 17 16 15 13 10 10 12
30 28 27 26 25 23 20 18 17 18 19 20 19 15 11 11 11 10 10 11 9 8 10 11 11 11 15 17 20 22 20 25 23 24 21 21 22 19 18 16 13 13 14
32 31 31 30 28 27 23 21 20 23 23 23 21 20 19 16 14 13 15 16 16 16 16 18 18 19 20 26 34 34 32 29 24 23 24 25 24 25 27 24 22 18 21
39 37 35 34 32 29 26 25 25 25 26 26 30 32 30 26 24 24 27 27 28 28 27 26 28 32 37 37 37 34 31 27 24 21 21 26 35 38 35 31 29 29 26
39 40 37 34 31 31 30 28 29 30 36 37 34 32 31 31 32 32 30 27 24 24 26 30 37 40 42 42 37 33 29 25 23 22 20 21 27 34 39 41 37 34 32
42 39 36 34 33 33 33 33 34 37 41 38 34 31 31 31 30 29 27 25 27 31 32 36 38 41 41 39 35 33 30 26 24 24 25 26 24 24 25 33 43 41 39
Wind_Speed
12 5 9 9 7 17 11 8 10 10 9 7 6 4 4 4 5 6 5 3 2 3 3 4 5 6 6 7 7 8 3 3 4 4 5 6 7 8 9 7 7 6 9
14 10 6 4 4 11 12 10 8 6 5 4 3 3 3 3 4 4 4 4 5 5 5 5 6 6 6 7 7 6 5 4 6 6 6 7 8 9 8 7 8 8 11
16 13 11 8 0 5 8 8 8 4 2 1 1 2 3 4 5 5 6 6 7 7 6 6 8 8 9 7 7 7 5 5 8 7 8 9 9 10 10 9 9 10 12
16 12 8 4 4 6 6 7 7 7 5 3 3 5 6 5 6 7 8 8 8 8 8 8 9 11 11 11 10 8 7 7 7 11 10 10 11 11 12 11 11 11 16
14 14 11 7 5 5 5 3 1 2 3 6 6 7 8 7 8 7 9 10 11 11 10 11 11 11 12 12 12 12 11 11 11 11 13 13 14 14 13 15 15 14 16
9 10 8 6 3 2 4 4 4 4 5 7 8 9 9 9 10 10 11 12 12 14 14 14 14 13 12 13 14 14 15 15 15 16 17 17 17 16 16 16 18 16 17
5 6 6 5 4 3 4 4 3 4 4 5 6 7 7 7 7 8 8 9 10 11 12 13 14 15 16 15 15 16 17 18 19 20 19 21 21 21 20 20 19 18 17
4 3 3 2 3 4 4 4 3 3 3 4 5 6 6 7 7 8 8 9 10 10 10 10 10 11 13 15 16 17 18 19 21 22 24 24 24 25 26 25 23 21 21
6 6 5 5 5 4 3 2 2 3 3 4 6 7 9 10 12 12 13 14 15 15 15 16 16 16 15 15 16 17 18 20 22 24 26 27 28 29 29 29 29 26 25
5 5 5 5 5 3 2 2 3 4 6 7 8 10 11 13 15 16 17 19 19 21 21 22 23 23 23 22 20 20 22 23 24 25 26 29 32 32 33 33 32 32 30
4 4 3 4 5 5 6 6 7 8 10 12 13 15 16 17 19 20 21 23 24 25 26 26 27 28 28 28 28 28 27 27 28 29 31 30 32 34 37 37 36 36 35
5 5 4 4 6 7 9 10 11 13 14 15 16 18 20 22 24 26 28 29 30 31 33 33 33 34 35 35 36 36 35 34 34 34 34 34 35 36 37 40 41 40 39
7 7 7 8 10 12 13 14 15 16 18 19 20 21 22 24 25 27 27 28 29 30 31 32 33 34 35 35 36 38 39 41 42 41 40 40 39 39 40 41 43 44 44
10 10 11 12 13 14 16 17 19 20 20 21 22 21 24 26 28 30 32 33 34 34 36 37 39 39 39 39 40 42 43 43 43 45 48 47 46 45 44 44 46 46 47
13 13 13 14 15 17 18 20 21 22 22 21 21 23 27 30 33 34 35 36 38 40 41 43 44 44 44 45 45 45 46 47 47 48 48 51 53 52 51 50 49 49 50
15 16 17 17 19 21 23 23 24 23 23 24 26 30 33 35 37 38 40 42 43 43 45 47 48 49 50 50 51 51 51 52 54 54 53 53 55 58 58 57 56 55 54
19 19 20 21 24 24 23 25 26 26 28 30 32 36 39 41 43 44 45 46 47 50 53 55 56 56 54 55 56 58 59 60 60 59 59 58 58 60 62 64 63 62 60
22 22 24 25 26 25 26 28 30 32 33 36 38 41 43 45 48 50 51 52 51 53 55 57 59 61 60 62 65 66 67 66 64 64 64 64 63 63 64 68 70 68 67
26 27 28 28 28 29 31 33 35 36 37 40 43 46 49 52 55 57 57 58 59 61 63 64 66 67 70 69 71 71 72 74 74 71 69 68 70 68 66 68 73 75 73
29 30 31 31 33 35 36 37 38 39 41 45 48 51 54 55 56 57 60 63 66 70 73 75 74 79 80 83 85 86 87 82 77 74 74 73 71 72 73 71 72 78 80
32 33 33 34 36 38 40 41 42 44 47 50 52 55 57 58 59 60 63 66 70 74 77 77 80 82 84 86 87 89 90 92 90 87 72 71 73 72 71 72 75 79 84
34 35 36 38 39 42 44 46 48 51 53 55 57 58 60 61 63 65 68 70 73 76 80 83 86 89 93 97 99 98 96 91 92 86 86 82 74 75 76 77 79 83 86
38 38 39 40 43 45 47 49 52 55 57 59 60 61 64 66 69 73 76 78 80 82 85 89 92 95 98 101 101 100 99 98 95 88 82 81 81 78 80 81 83 83 87
40 40 42 44 46 48 49 52 55 57 60 60 62 65 69 73 77 80 82 84 87 88 89 90 93 95 96 96 95 94 90 90 92 91 84 80 79 81 81 82 82 83 85
41 43 45 47 49 50 52 54 56 58 60 62 66 68 71 74 76 78 79 81 85 88 90 93 92 93 91 89 87 85 87 87 89 89 85 82 80 80 80 83 84 82 82
41 44 46 49 51 52 53 55 58 61 63 67 71 72 74 75 78 81 84 87 90 90 91 91 91 90 88 87 88 90 92 93 94 95 95 89 89 89 86 83 84 84 83
Wind_Direction
164 177 228 254 148 197 215 138 110 112 124 136 146 147 156 165 179 191 214 237 283 317 340 348 355 351 346 351 353 3 357 269 247 237 233 230 239 230 223 221 227 232 242
168 167 171 82 111 111 115 113 107 122 132 147 165 223 243 246 253 267 275 288 290 291 300 313 325 330 333 332 336 342 351 263 240 254 259 252 251 254 250 234 241 243 238
178 183 197 218 123 97 105 109 111 122 115 117 139 263 275 281 291 299 293 290 282 280 282 283 291 299 305 311 309 315 315 311 241 246 266 275 268 264 258 244 248 254 245
171 183 196 183 157 137 134 146 155 168 172 195 257 261 263 273 282 286 285 282 279 283 287 289 287 289 293 297 295 288 284 273 256 249 259 269 278 273 261 255 248 252 245
186 183 168 176 181 202 187 154 215 256 279 293 287 276 282 283 283 293 296 298 300 301 298 295 291 290 288 285 286 284 279 272 261 255 255 260 265 268 267 259 258 249 259
171 181 180 204 250 256 259 288 306 301 298 296 298 292 292 295 300 304 304 302 303 306 307 306 303 298 288 284 285 284 279 275 270 265 262 261 261 262 264 263 259 260 259
169 194 206 228 261 284 293 310 321 311 309 303 299 302 311 311 312 312 311 310 310 308 304 301 300 300 296 291 285 277 274 274 273 270 267 265 263 260 257 256 257 258 256
168 192 213 223 253 261 265 268 277 284 300 311 310 313 318 319 317 316 312 311 310 306 304 302 298 294 293 293 291 286 278 272 270 270 271 269 267 262 260 258 255 255 254
184 182 202 212 219 224 242 274 315 323 335 332 319 329 327 327 327 325 324 322 320 319 317 314 312 308 303 298 291 284 282 280 274 268 268 269 270 269 265 260 259 254 253
181 198 206 220 217 199 211 253 273 282 290 303 311 316 314 315 317 316 317 313 313 311 311 310 309 309 307 304 300 295 292 287 281 273 267 265 265 267 267 267 264 259 253
192 220 220 227 248 264 282 290 296 299 309 316 318 313 312 312 312 313 313 312 310 309 308 306 303 301 299 297 295 294 292 290 287 284 281 273 264 262 264 265 265 263 259
190 202 219 243 267 278 286 289 289 296 305 309 309 311 316 317 317 316 314 312 308 305 303 299 297 297 297 296 296 293 290 287 285 284 282 278 275 270 263 261 262 262 262
228 240 254 263 270 276 282 288 297 302 305 308 310 311 314 315 315 312 308 302 297 297 296 295 296 297 295 296 296 291 288 286 285 283 279 279 276 272 270 266 260 259 260
250 257 266 274 282 290 295 297 298 298 299 301 302 305 305 307 308 309 306 304 302 301 301 302 302 302 298 297 298 296 294 290 283 280 279 276 274 274 271 267 265 262 257
262 272 279 284 289 293 295 292 290 288 287 288 291 295 301 305 306 307 307 306 304 303 303 302 301 302 300 299 298 296 295 294 290 286 279 275 274 271 269 268 265 263 260
274 276 279 286 293 295 293 291 289 287 288 290 291 295 297 300 302 305 304 303 301 300 299 299 300 300 299 298 299 297 295 293 291 288 283 277 271 270 269 267 264 263 260
274 279 283 287 291 291 291 292 289 285 287 288 290 295 298 300 300 300 300 300 301 301 302 303 302 299 297 296 295 293 291 289 287 284 281 279 277 271 267 265 264 262 259
273 276 278 281 285 286 288 289 288 287 287 290 292 294 296 297 298 300 299 297 296 296 297 296 294 294 290 289 291 291 292 291 290 288 287 284 278 272 270 266 262 260 259
274 278 279 281 282 287 292 293 292 290 290 292 296 300 302 302 301 301 301 300 299 300 299 296 295 294 294 293 293 294 294 294 292 291 289 286 285 280 272 266 265 261 258
274 277 279 281 282 286 290 292 291 293 295 298 299 299 299 300 301 301 302 302 301 300 300 303 302 301 300 299 300 300 301 300 296 292 289 287 283 283 280 271 260 259 259
274 278 282 282 284 287 289 290 293 295 296 296 296 297 298 299 298 299 299 297 297 297 296 294 293 293 293 289 286 288 290 294 294 293 288 283 281 278 270 266 258 254 255
278 282 283 284 285 287 290 291 293 295 296 296 296 297 297 297 297 296 295 296 294 292 292 291 291 291 291 291 290 289 287 289 288 289 286 283 274 272 263 257 254 252 252
280 281 281 282 284 288 290 292 294 296 296 297 297 297 296 296 295 295 296 295 294 292 292 292 292 291 290 289 290 290 288 287 285 283 280 274 271 265 260 257 255 252 251
279 279 280 284 287 289 290 292 293 295 296 297 297 299 299 298 297 296 296 296 296 297 296 295 293 291 293 295 296 293 289 286 283 278 275 271 265 263 261 259 257 254 251
278 280 282 285 287 288 289 290 292 295 295 298 298 299 300 300 300 299 299 299 299 298 297 297 298 299 297 294 290 286 283 281 280 279 274 272 269 265 262 261 258 255 252
279 281 283 285 285 286 286 289 291 294 296 298 299 300 301 302 301 300 301 301 299 300 300 301 300 298 294 290 288 287 286 284 280 277 275 270 267 264 262 259 257 255 251